Time,TemperatureF,DewpointF,PressureIn,WindDirection,WindDirectionDegrees,WindSpeedMPH,WindSpeedGustMPH,Humidity,HourlyPrecipIn,Conditions,Clouds,dailyrainin,SoftwareType,DateUTC
2013-02-26 00:22:00,-999.0,-99.9,30.24,SE,125,3.0,4.0,-999,-99.99,,,-99.99,,2013-02-26 05:22:00,
2013-02-26 00:32:00,-999.0,-99.9,30.24,South,169,3.0,3.0,-999,-99.99,,,-99.99,,2013-02-26 05:32:00,
2013-02-26 00:43:00,37.0,-99.9,30.25,North,-999,-999.0,-999.0,-999,-99.99,,,-99.99,,2013-02-26 05:43:00,
2013-02-26 00:52:00,-999.0,-99.9,30.24,South,172,4.0,5.0,-999,-99.99,,,-99.99,,2013-02-26 05:52:00,
2013-02-26 01:02:00,37.0,-99.9,30.25,North,-999,-999.0,-999.0,-999,-99.99,,,-99.99,,2013-02-26 06:02:00,
2013-02-26 01:11:00,-999.0,-99.9,30.25,SSE,166,3.0,4.0,-999,-99.99,,,-99.99,,2013-02-26 06:11:00,
2013-02-26 01:22:00,-999.0,-99.9,30.25,SSE,166,3.0,4.0,-999,-99.99,,,-99.99,,2013-02-26 06:22:00,
2013-02-26 01:42:00,-999.0,-99.9,30.24,SE,145,3.0,4.0,-999,-99.99,,,-99.99,,2013-02-26 06:42:00,
2013-02-26 01:52:00,37.0,-99.9,30.24,North,-999,-999.0,-999.0,-999,-99.99,,,-99.99,,2013-02-26 06:52:00,
2013-02-26 02:01:00,-999.0,-99.9,30.24,SE,130,3.0,3.0,-999,-99.99,,,-99.99,,2013-02-26 07:01:00,
2013-02-26 02:22:00,-999.0,-99.9,30.23,ESE,109,4.0,6.0,-999,-99.99,,,-99.99,,2013-02-26 07:22:00,
2013-02-26 02:32:00,37.0,-99.9,30.23,North,-999,-999.0,-999.0,-999,-99.99,,,-99.99,,2013-02-26 07:32:00,
2013-02-26 02:42:00,37.0,-99.9,30.22,North,-999,-999.0,-999.0,-999,-99.99,,,-99.99,,2013-02-26 07:42:00,
2013-02-26 02:52:00,37.0,-99.9,30.24,North,-999,-999.0,-999.0,-999,-99.99,,,-99.99,,2013-02-26 07:52:00,
2013-02-26 03:02:00,37.0,-99.9,30.24,North,-999,-999.0,-999.0,-999,-99.99,,,-99.99,,2013-02-26 08:02:00,
2013-02-26 03:32:00,-999.0,-99.9,30.26,SSE,166,2.0,2.0,-999,-99.99,,,-99.99,,2013-02-26 08:32:00,
2013-02-26 03:42:00,-999.0,-99.9,30.27,South,178,3.0,3.0,-999,-99.99,,,-99.99,,2013-02-26 08:42:00,
2013-02-26 03:52:00,37.0,-99.9,30.27,North,-999,-999.0,-999.0,-999,-99.99,,,-99.99,,2013-02-26 08:52:00,
2013-02-26 04:02:00,37.0,-99.9,30.27,North,-999,-999.0,-999.0,-999,-99.99,,,-99.99,,2013-02-26 09:02:00,
2013-02-26 04:11:00,-999.0,-99.9,30.27,SSW,193,0.0,2.0,-999,-99.99,,,-99.99,,2013-02-26 09:11:00,
2013-02-26 04:21:00,-999.0,-99.9,30.28,SSW,210,2.0,2.0,-999,-99.99,,,-99.99,,2013-02-26 09:21:00,
2013-02-26 04:32:00,37.0,-99.9,30.28,North,-999,-999.0,-999.0,-999,-99.99,,,-99.99,,2013-02-26 09:32:00,
2013-02-26 04:43:00,37.0,-99.9,30.28,North,-999,-999.0,-999.0,-999,-99.99,,,-99.99,,2013-02-26 09:43:00,
2013-02-26 04:52:00,37.0,-99.9,30.28,North,-999,-999.0,-999.0,-999,-99.99,,,-99.99,,2013-02-26 09:52:00,
2013-02-26 05:01:00,37.0,-99.9,-100.00,East,101,-999.0,-999.0,-999,-99.99,,,-99.99,,2013-02-26 10:01:00,
2013-02-26 05:21:00,37.0,-99.9,30.27,North,-999,-999.0,-999.0,-999,-99.99,,,-99.99,,2013-02-26 10:21:00,
2013-02-26 05:32:00,-999.0,-99.9,30.27,ENE,71,1.0,2.0,-999,-99.99,,,-99.99,,2013-02-26 10:32:00,
2013-02-26 05:42:00,-999.0,-99.9,30.27,East,96,1.0,2.0,-999,-99.99,,,-99.99,,2013-02-26 10:42:00,
2013-02-26 05:52:00,36.0,-99.9,30.27,North,-999,-999.0,-999.0,-999,-99.99,,,-99.99,,2013-02-26 10:52:00,
2013-02-26 06:01:00,36.0,-99.9,30.28,North,-999,-999.0,-999.0,-999,-99.99,,,-99.99,,2013-02-26 11:01:00,
2013-02-26 06:22:00,-999.0,-99.9,30.29,SE,129,1.0,2.0,-999,-99.99,,,-99.99,,2013-02-26 11:22:00,
2013-02-26 06:42:00,-999.0,-99.9,30.29,East,83,1.0,2.0,-999,-99.99,,,-99.99,,2013-02-26 11:42:00,
2013-02-26 06:53:00,36.0,-99.9,30.29,North,-999,-999.0,-999.0,-999,-99.99,,,-99.99,,2013-02-26 11:53:00,
2013-02-26 07:02:00,36.0,-99.9,30.29,NNE,29,4.0,4.0,-999,-99.99,,,-99.99,,2013-02-26 12:02:00,
2013-02-26 07:11:00,-999.0,-99.9,30.29,ENE,57,4.0,5.0,-999,-99.99,,,-99.99,,2013-02-26 12:11:00,
2013-02-26 07:22:00,36.0,-99.9,30.30,North,-999,-999.0,-999.0,-999,-99.99,,,-99.99,,2013-02-26 12:22:00,
2013-02-26 07:33:00,-999.0,-99.9,30.31,East,98,3.0,4.0,-999,-99.99,,,-99.99,,2013-02-26 12:33:00,
2013-02-26 07:42:00,36.0,-99.9,30.31,North,-999,-999.0,-999.0,-999,-99.99,,,-99.99,,2013-02-26 12:42:00,
2013-02-26 07:53:00,-999.0,-99.9,30.31,ENE,71,5.0,6.0,-999,-99.99,,,-99.99,,2013-02-26 12:53:00,
2013-02-26 08:02:00,36.0,-99.9,30.30,North,-999,-999.0,-999.0,-999,-99.99,,,-99.99,,2013-02-26 13:02:00,
2013-02-26 08:22:00,-999.0,-99.9,30.31,East,97,6.0,7.0,-999,-99.99,,,-99.99,,2013-02-26 13:22:00,
2013-02-26 08:32:00,-999.0,-99.9,30.31,ESE,103,5.0,7.0,-999,-99.99,,,-99.99,,2013-02-26 13:32:00,
2013-02-26 08:42:00,-999.0,-99.9,30.31,ESE,110,6.0,7.0,-999,-99.99,,,-99.99,,2013-02-26 13:42:00,
2013-02-26 08:52:00,-999.0,-99.9,30.32,ESE,103,5.0,8.0,-999,-99.99,,,-99.99,,2013-02-26 13:52:00,
2013-02-26 09:02:00,-999.0,-99.9,30.32,East,88,6.0,7.0,-999,-99.99,,,-99.99,,2013-02-26 14:02:00,
2013-02-26 09:11:00,-999.0,-99.9,30.32,ESE,106,5.0,8.0,-999,-99.99,,,-99.99,,2013-02-26 14:11:00,
2013-02-26 09:22:00,-999.0,-99.9,30.32,ESE,115,6.0,7.0,-999,-99.99,,,-99.99,,2013-02-26 14:22:00,
2013-02-26 09:32:00,-999.0,-99.9,30.32,ESE,102,7.0,10.0,-999,-99.99,,,-99.99,,2013-02-26 14:32:00,
2013-02-26 09:42:00,-999.0,-99.9,30.32,ESE,103,6.0,8.0,-999,-99.99,,,-99.99,,2013-02-26 14:42:00,
2013-02-26 09:52:00,38.0,-99.9,30.32,North,-999,-999.0,-999.0,-999,-99.99,,,-99.99,,2013-02-26 14:52:00,
2013-02-26 10:02:00,-999.0,-99.9,30.32,East,94,6.0,9.0,-999,-99.99,,,-99.99,,2013-02-26 15:02:00,
2013-02-26 10:12:00,-999.0,-99.9,30.32,ESE,112,5.0,9.0,-999,-99.99,,,-99.99,,2013-02-26 15:12:00,
2013-02-26 10:22:00,39.0,-99.9,30.32,North,-999,-999.0,-999.0,-999,-99.99,,,-99.99,,2013-02-26 15:22:00,
2013-02-26 10:32:00,-999.0,-99.9,30.32,ESE,112,7.0,10.0,-999,-99.99,,,-99.99,,2013-02-26 15:32:00,
2013-02-26 10:42:00,38.0,-99.9,30.32,North,-999,-999.0,-999.0,-999,-99.99,,,-99.99,,2013-02-26 15:42:00,
2013-02-26 10:52:00,-999.0,-99.9,30.33,SE,126,7.0,12.0,-999,-99.99,,,-99.99,,2013-02-26 15:52:00,
2013-02-26 11:02:00,-999.0,-99.9,30.33,SE,138,9.0,12.0,-999,-99.99,,,-99.99,,2013-02-26 16:02:00,
2013-02-26 11:11:00,-999.0,-99.9,30.32,SE,131,10.0,12.0,-999,-99.99,,,-99.99,,2013-02-26 16:11:00,
2013-02-26 11:32:00,-999.0,-99.9,30.32,SE,125,7.0,13.0,-999,-99.99,,,-99.99,,2013-02-26 16:32:00,
2013-02-26 11:42:00,40.0,-99.9,30.31,North,-999,-999.0,-999.0,-999,-99.99,,,-99.99,,2013-02-26 16:42:00,
2013-02-26 11:52:00,-999.0,-99.9,30.31,SE,140,10.0,14.0,-999,-99.99,,,-99.99,,2013-02-26 16:52:00,
2013-02-26 12:02:00,-999.0,-99.9,30.32,SE,127,11.0,13.0,-999,-99.99,,,-99.99,,2013-02-26 17:02:00,
2013-02-26 12:11:00,-999.0,-99.9,30.32,SE,126,7.0,13.0,-999,-99.99,,,-99.99,,2013-02-26 17:11:00,
2013-02-26 12:22:00,40.0,-99.9,30.33,SE,144,9.0,15.0,-999,-99.99,,,-99.99,,2013-02-26 17:22:00,
2013-02-26 12:32:00,-999.0,-99.9,30.32,SE,134,9.0,14.0,-999,-99.99,,,-99.99,,2013-02-26 17:32:00,
2013-02-26 12:42:00,-999.0,-99.9,30.31,ESE,117,11.0,15.0,-999,-99.99,,,-99.99,,2013-02-26 17:42:00,
2013-02-26 12:52:00,40.0,-99.9,30.31,North,-999,-999.0,-999.0,-999,-99.99,,,-99.99,,2013-02-26 17:52:00,
2013-02-26 13:12:00,-999.0,-99.9,30.31,SSE,160,9.0,12.0,-999,-99.99,,,-99.99,,2013-02-26 18:12:00,
2013-02-26 13:21:00,40.0,-99.9,30.30,North,-999,-999.0,-999.0,-999,-99.99,,,-99.99,,2013-02-26 18:21:00,
2013-02-26 13:32:00,40.0,-99.9,30.30,North,-999,-999.0,-999.0,-999,-99.99,,,-99.99,,2013-02-26 18:32:00,
2013-02-26 13:42:00,40.0,-99.9,30.30,North,-999,-999.0,-999.0,-999,-99.99,,,-99.99,,2013-02-26 18:42:00,
2013-02-26 13:53:00,39.0,-99.9,30.30,North,-999,-999.0,-999.0,-999,-99.99,,,-99.99,,2013-02-26 18:53:00,
2013-02-26 14:02:00,39.0,-99.9,30.29,North,-999,-999.0,-999.0,-999,-99.99,,,-99.99,,2013-02-26 19:02:00,
2013-02-26 14:11:00,-999.0,-99.9,30.29,SE,129,10.0,13.0,-999,-99.99,,,-99.99,,2013-02-26 19:11:00,
2013-02-26 14:22:00,-999.0,-99.9,30.29,SE,126,9.0,13.0,-999,-99.99,,,-99.99,,2013-02-26 19:22:00,
2013-02-26 14:32:00,39.0,-99.9,30.29,North,-999,-999.0,-999.0,-999,-99.99,,,-99.99,,2013-02-26 19:32:00,
2013-02-26 14:52:00,39.0,-99.9,30.28,North,-999,-999.0,-999.0,-999,-99.99,,,-99.99,,2013-02-26 19:52:00,
2013-02-26 15:11:00,-999.0,-99.9,30.27,SE,127,6.0,11.0,-999,-99.99,,,-99.99,,2013-02-26 20:11:00,
2013-02-26 15:22:00,39.0,-99.9,30.27,North,-999,-999.0,-999.0,-999,-99.99,,,-99.99,,2013-02-26 20:22:00,
2013-02-26 15:32:00,-999.0,-99.9,30.27,SSE,156,8.0,12.0,-999,-99.99,,,-99.99,,2013-02-26 20:32:00,
2013-02-26 15:42:00,-999.0,-99.9,30.28,SSE,148,10.0,13.0,-999,-99.99,,,-99.99,,2013-02-26 20:42:00,
2013-02-26 15:52:00,-999.0,-99.9,30.28,SE,130,10.0,14.0,-999,-99.99,,,-99.99,,2013-02-26 20:52:00,
2013-02-26 16:02:00,39.0,-99.9,30.28,North,-999,-999.0,-999.0,-999,-99.99,,,-99.99,,2013-02-26 21:02:00,
2013-02-26 16:11:00,-999.0,-99.9,30.27,SE,135,10.0,14.0,-999,-99.99,,,-99.99,,2013-02-26 21:11:00,
2013-02-26 16:21:00,-999.0,-99.9,30.27,SE,133,9.0,13.0,-999,-99.99,,,-99.99,,2013-02-26 21:21:00,
2013-02-26 16:41:00,-999.0,-99.9,30.26,ESE,122,9.0,12.0,-999,-99.99,,,-99.99,,2013-02-26 21:41:00,
2013-02-26 16:51:00,-999.0,-99.9,30.26,SE,131,10.0,14.0,-999,-99.99,,,-99.99,,2013-02-26 21:51:00,
2013-02-26 17:01:00,-999.0,-99.9,30.26,SE,124,9.0,12.0,-999,-99.99,,,-99.99,,2013-02-26 22:01:00,
2013-02-26 17:21:00,38.0,-99.9,30.26,North,-999,-999.0,-999.0,-999,-99.99,,,-99.99,,2013-02-26 22:21:00,
2013-02-26 17:32:00,-999.0,-99.9,30.26,SE,126,8.0,11.0,-999,-99.99,,,-99.99,,2013-02-26 22:32:00,
2013-02-26 17:42:00,-999.0,-99.9,30.25,ESE,121,7.0,9.0,-999,-99.99,,,-99.99,,2013-02-26 22:42:00,
2013-02-26 17:52:00,38.0,-99.9,30.25,North,-999,-999.0,-999.0,-999,-99.99,,,-99.99,,2013-02-26 22:52:00,
2013-02-26 18:21:00,-999.0,-99.9,30.25,East,100,6.0,9.0,-999,-99.99,,,-99.99,,2013-02-26 23:21:00,
2013-02-26 18:32:00,-999.0,-99.9,30.24,East,91,6.0,9.0,-999,-99.99,,,-99.99,,2013-02-26 23:32:00,
2013-02-26 18:42:00,38.0,-99.9,30.24,North,-999,-999.0,-999.0,-999,-99.99,,,-99.99,,2013-02-26 23:42:00,
2013-02-26 18:52:00,-999.0,-99.9,30.24,East,88,7.0,11.0,-999,-99.99,,,-99.99,,2013-02-26 23:52:00,
2013-02-26 19:02:00,38.0,-99.9,30.23,North,-999,-999.0,-999.0,-999,-99.99,,,-99.99,,2013-02-27 00:02:00,
2013-02-26 19:11:00,-999.0,-99.9,30.23,East,82,7.0,10.0,-999,-99.99,,,-99.99,,2013-02-27 00:11:00,
2013-02-26 19:22:00,-999.0,-99.9,30.23,East,88,8.0,10.0,-999,-99.99,,,-99.99,,2013-02-27 00:22:00,
2013-02-26 19:32:00,-999.0,-99.9,30.23,East,101,5.0,9.0,-999,-99.99,,,-99.99,,2013-02-27 00:32:00,
2013-02-26 19:42:00,-999.0,-99.9,30.23,East,87,8.0,10.0,-999,-99.99,,,-99.99,,2013-02-27 00:42:00,
2013-02-26 19:52:00,-999.0,-99.9,30.23,East,88,7.0,12.0,-999,-99.99,,,-99.99,,2013-02-27 00:52:00,
2013-02-26 20:01:00,38.0,-99.9,30.23,North,-999,-999.0,-999.0,-999,-99.99,,,-99.99,,2013-02-27 01:01:00,
2013-02-26 20:22:00,37.0,-99.9,30.22,North,-999,-999.0,-999.0,-999,-99.99,,,-99.99,,2013-02-27 01:22:00,
2013-02-26 20:32:00,-999.0,-99.9,30.23,East,80,8.0,10.0,-999,-99.99,,,-99.99,,2013-02-27 01:32:00,
2013-02-26 20:42:00,37.0,-99.9,30.23,North,-999,-999.0,-999.0,-999,-99.99,,,-99.99,,2013-02-27 01:42:00,
2013-02-26 20:52:00,37.0,-99.9,30.21,North,-999,-999.0,-999.0,-999,-99.99,,,-99.99,,2013-02-27 01:52:00,
2013-02-26 21:02:00,-999.0,-99.9,30.21,ENE,68,9.0,13.0,-999,-99.99,,,-99.99,,2013-02-27 02:02:00,
2013-02-26 21:32:00,-999.0,-99.9,30.19,ENE,67,8.0,10.0,-999,-99.99,,,-99.99,,2013-02-27 02:32:00,
2013-02-26 21:42:00,-999.0,-99.9,30.19,ENE,63,8.0,10.0,-999,-99.99,,,-99.99,,2013-02-27 02:42:00,
2013-02-26 21:52:00,-999.0,-99.9,30.19,ENE,64,7.0,11.0,-999,-99.99,,,-99.99,,2013-02-27 02:52:00,
2013-02-26 22:02:00,37.0,-99.9,30.19,North,-999,-999.0,-999.0,-999,-99.99,,,-99.99,,2013-02-27 03:02:00,
2013-02-26 22:22:00,38.0,-99.9,30.17,North,-999,-999.0,-999.0,-999,-99.99,,,-99.99,,2013-02-27 03:22:00,
2013-02-26 22:32:00,-999.0,-99.9,30.17,ENE,71,10.0,12.0,-999,-99.99,,,-99.99,,2013-02-27 03:32:00,
2013-02-26 22:42:00,38.0,-99.9,30.15,North,-999,-999.0,-999.0,-999,-99.99,,,-99.99,,2013-02-27 03:42:00,
2013-02-26 22:52:00,-999.0,-99.9,30.15,NE,47,8.0,16.0,-999,-99.99,,,-99.99,,2013-02-27 03:52:00,
2013-02-26 23:02:00,-999.0,-99.9,30.14,ENE,67,9.0,13.0,-999,-99.99,,,-99.99,,2013-02-27 04:02:00,
2013-02-26 23:12:00,-999.0,-99.9,30.13,ENE,66,8.0,12.0,-999,-99.99,,,-99.99,,2013-02-27 04:12:00,
2013-02-26 23:22:00,38.0,-99.9,30.13,North,-999,-999.0,-999.0,-999,-99.99,,,-99.99,,2013-02-27 04:22:00,
2013-02-26 23:32:00,38.0,-99.9,30.12,North,-999,-999.0,-999.0,-999,-99.99,,,-99.99,,2013-02-27 04:32:00,
2013-02-26 23:52:00,-999.0,-99.9,30.11,East,79,11.0,16.0,-999,-99.99,,,-99.99,,2013-02-27 04:52:00,